[[{"header":{"parameterUnit":"m.s-1","parameterCategory":1,"la1":30.2991,"la2":30.254,"lo1":-89.0895,"lo2":-89.0444,"dy":0.0017,"dx":0.0017,"nx":28,"ny":28,"refTime":"2023-08-27T21:00:00:Z","depth":0,"parameterNumber":2,"parameterNumberName":"U-component_of_WINDS"},"data":[0,0,0,0,0,0,0,0,0,0,0,0,0,0,0,0,0,0,0,0,0,0,0,0,0,0,0,0,0,0,0,0,0,0,0,0,0,0,0,0,0,0,0,0,0,0,0,0,0,0,0,0,0,0,0,0,0,0,1.4895,1.4895,0,1.4965,1.4966,1.4967,1.4932,1.493,1.4928,1.4926,1.5003,1.5006,1.501,0,0,0,0,0,0,0,0,0,0,0,0,0,1.4731,1.4734,1.4895,1.4895,1.4896,1.4965,1.4966,1.4967,1.4932,1.493,1.4928,1.4926,1.5001,1.5006,1.501,0,0,0,0,0,0,0,0,0,0,0,0,0,1.4802,1.4735,1.4894,1.4887,1.4887,1.4965,1.4966,1.4967,1.4933,1.493,1.4927,1.4925,1.5,1.5005,1.5011,1.5101,0,0,1.5028,1.5031,0,0,0,0,0,0,0,0,1.4798,1.4808,1.4887,1.4888,1.4888,1.4937,1.4936,1.5012,1.4933,1.4916,1.4926,1.4923,1.4983,1.499,1.5009,1.5105,1.5108,1.5029,1.5032,1.5034,1.5036,0,0,0,0,0,0,0,1.4793,1.4805,1.4923,1.4888,1.4889,1.4881,1.4888,1.4951,1.4964,1.4917,1.4914,1.4923,1.4983,1.5004,1.5011,1.5109,1.5028,1.5033,1.5037,1.5039,1.5281,1.5283,0,0,0,0,0,0,1.4788,1.4801,1.492,1.4925,1.4835,1.4886,1.4894,1.4924,1.4963,1.4967,1.4925,1.4921,1.4996,1.5005,1.5014,1.5121,1.5034,1.504,1.5043,1.5278,1.5281,1.5285,0,0,0,0,0,0,1.4785,1.4799,1.4918,1.4862,1.4877,1.4892,1.4926,1.4927,1.4948,1.497,1.4972,1.4945,1.4994,1.5006,1.5079,1.5123,1.5042,1.5047,1.5274,1.5279,1.5283,1.5337,0,0,0,0,0,0,1.478,1.4798,1.4832,1.4863,1.488,1.4981,1.4929,1.493,1.4957,1.4953,1.4988,1.4992,1.4993,1.5071,1.5085,1.5129,1.5052,1.527,1.5276,1.5281,1.5331,1.5343,1.5353,0,0,0,0,0,1.4775,1.4846,1.4834,1.4849,1.4923,1.4984,1.4994,1.4992,1.4961,1.4996,1.5009,1.4991,1.5116,1.5079,1.5094,1.5141,1.5267,1.5274,1.5281,1.5327,1.5341,1.5353,0,0,0,0,0,0,1.4822,1.485,1.4837,1.4921,1.495,1.4978,1.5022,1.5007,1.5047,1.5041,1.5039,1.5047,1.5123,1.5139,1.5097,1.523,1.5187,1.5197,1.5216,1.523,1.524,1.5235,1.5056,0,0,0,0,0,1.4841,1.4888,1.4911,1.4982,1.4997,1.5007,1.5034,1.503,1.5061,1.5073,1.5092,1.5124,1.517,1.5201,1.5245,1.5333,1.5341,1.5373,1.5384,1.5392,1.5402,1.5449,1.5463,1.5307,1.5307,1.5307,0,0,1.4884,1.4905,1.4935,1.4992,1.5014,1.5063,1.5018,1.5072,1.5108,1.5082,1.5152,1.5167,1.5202,1.5283,1.5319,1.5299,1.5446,1.5401,1.5408,1.5412,1.5457,1.5472,1.5485,1.5312,1.5311,1.531,0,0,1.4985,1.5005,1.5066,1.5089,1.5123,1.5128,1.5143,1.5173,1.5181,1.5251,1.5232,1.5275,1.5356,1.5381,1.5404,1.5513,1.5497,1.5527,1.5583,1.5629,1.5641,1.5652,1.5691,1.5704,1.5536,1.5536,1.5536,0,1.5033,1.5105,1.51,1.5155,1.518,1.5157,1.5219,1.5241,1.5288,1.5307,1.5282,1.5381,1.5403,1.5489,1.5515,1.5535,1.5552,1.5523,1.564,1.5651,1.5661,1.5697,1.5712,1.554,1.5539,1.5539,1.5539,0,1.5162,1.5212,1.5258,1.5301,1.5332,1.539,1.5394,1.5426,1.5419,1.5428,1.5498,1.5524,1.5572,1.5592,1.5587,1.5677,1.5663,1.5639,1.5596,1.5679,1.5713,1.5727,1.5545,1.5543,1.5542,1.5541,0,0,1.5297,1.5335,1.5352,1.5371,1.5405,1.5444,1.5501,1.5546,1.5573,1.5606,1.5654,1.5721,1.5699,1.5725,1.5722,1.5763,1.5846,1.5734,1.5735,1.5754,1.5947,1.5964,1.5981,1.5835,1.5838,1.584,1.5944,0,1.54,1.5498,1.5494,1.5586,1.5632,1.5609,1.5659,1.5686,1.5694,1.5735,1.5745,1.5793,1.576,1.5776,1.5815,1.5828,1.5885,1.582,1.588,1.5882,1.5872,1.5999,1.6018,1.6114,1.5957,1.5959,1.5961,0,1.5534,1.5569,1.5665,1.5691,1.571,1.5754,1.5794,1.5834,1.5863,1.5867,1.5895,1.5885,1.5943,1.5898,1.5978,1.5934,1.5958,1.5968,1.5972,1.5978,1.5927,1.6008,1.6145,1.616,1.5982,1.598,1.5979,0,1.5622,1.5693,1.5759,1.5776,1.5808,1.584,1.5855,1.5881,1.5908,1.5944,1.5961,1.6004,1.6028,1.6061,1.6063,1.603,1.6143,1.6098,1.6148,1.6148,1.6174,1.6172,1.6317,1.6189,1.6189,1.6189,1.6189,0,1.5738,1.5797,1.5799,1.584,1.5905,1.59,1.5966,1.5978,1.6002,1.6045,1.6028,1.6069,1.6069,1.6111,1.6113,1.6179,1.619,1.6194,1.6194,1.6196,1.6195,1.6212,1.6206,1.6193,1.6192,1.6191,1.619,0,1.5848,1.5851,1.5921,1.5945,1.5952,1.6,1.602,1.6059,1.6066,1.612,1.6133,1.6144,1.6192,1.6197,1.6254,1.6255,1.6334,1.6327,1.6324,1.6322,1.6372,1.6367,1.6533,1.6555,1.6413,1.6414,1.6415,0,1.5922,1.5966,1.5994,1.6021,1.6037,1.6081,1.6107,1.6104,1.6133,1.6169,1.6203,1.6249,1.6286,1.6364,1.6378,1.6421,1.6415,1.647,1.6422,1.6421,1.6416,1.6413,1.6417,1.648,1.6481,1.6482,1.6483,0,1.6052,1.6051,1.6089,1.6128,1.616,1.6191,1.622,1.6243,1.6243,1.6276,1.6324,1.6352,1.6409,1.6455,1.6497,1.6513,1.6499,1.6498,1.6512,1.6515,1.6511,1.6513,1.6349,1.6495,1.6494,1.6493,1.6492,1.6492,1.6147,1.6185,1.6209,1.6253,1.6273,1.63,1.6337,1.6347,1.6387,1.6431,1.6427,1.648,1.6508,1.6562,1.6581,1.6623,1.6605,1.6625,1.6631,1.6636,1.6641,1.6504,1.6631,1.6631,1.6631,1.663,1.663,0,1.6276,1.629,1.633,1.6369,1.6403,1.6384,1.6414,1.6444,1.6491,1.6517,1.6552,1.6607,1.6652,1.6668,1.6711,1.6742,1.6736,1.6753,1.6751,1.6755,1.6655,1.6638,1.6757,1.6757,1.6757,1.6757,1.6757,1.6757,1.6348,1.6411,1.6413,1.6486,1.65,1.655,1.6569,1.6594,1.6614,1.6676,1.6712,1.6721,1.6743,1.6787,1.6827,1.6831,1.6848,1.6868,1.6869,1.6775,1.6762,1.675,1.6735,1.6872,1.6872,1.6966,1.6967,1.6967]},{"header":{"parameterUnit":"m.s-1","parameterCategory":1,"la1":30.2991,"la2":30.254,"lo1":-89.0895,"lo2":-89.0444,"dy":0.0017,"dx":0.0017,"nx":28,"ny":28,"refTime":"2023-08-27T21:00:00:Z","depth":0,"parameterNumber":3,"parameterNumberName":"V-component_of_WINDS"},"data":[0,0,0,0,0,0,0,0,0,0,0,0,0,0,0,0,0,0,0,0,0,0,0,0,0,0,0,0,0,0,0,0,0,0,0,0,0,0,0,0,0,0,0,0,0,0,0,0,0,0,0,0,0,0,0,0,0,0,2.4322,2.4323,0,2.4432,2.4433,2.4435,2.4422,2.442,2.4418,2.4417,2.4525,2.4529,2.4534,0,0,0,0,0,0,0,0,0,0,0,0,0,2.4094,2.4099,2.4321,2.4323,2.4324,2.4432,2.4433,2.4435,2.4422,2.442,2.4418,2.4416,2.4523,2.4529,2.4534,0,0,0,0,0,0,0,0,0,0,0,0,0,2.4198,2.41,2.4321,2.4331,2.4333,2.4432,2.4434,2.4435,2.4423,2.442,2.4417,2.4415,2.4522,2.4528,2.4535,2.4629,0,0,2.4556,2.4558,0,0,0,0,0,0,0,0,2.4192,2.4206,2.4328,2.4331,2.4333,2.4411,2.4393,2.45,2.4423,2.4388,2.4417,2.4413,2.4489,2.4498,2.4524,2.4634,2.4639,2.4556,2.456,2.4563,2.4565,0,0,0,0,0,0,0,2.4185,2.4201,2.4365,2.433,2.4333,2.4328,2.434,2.4413,2.4452,2.4391,2.4391,2.4404,2.4489,2.4518,2.4527,2.4641,2.4556,2.4562,2.4566,2.4569,2.4834,2.4837,0,0,0,0,0,0,2.4176,2.4195,2.4362,2.4368,2.4255,2.4334,2.4348,2.4388,2.4451,2.4458,2.4406,2.4403,2.4508,2.4519,2.453,2.4645,2.4563,2.4569,2.4573,2.4831,2.4834,2.4838,0,0,0,0,0,0,2.4171,2.4191,2.4357,2.4282,2.4303,2.4341,2.4387,2.4392,2.442,2.4462,2.4469,2.4429,2.4506,2.4521,2.4605,2.4649,2.4573,2.4579,2.4827,2.4832,2.4836,2.4876,0,0,0,0,0,0,2.4165,2.4189,2.4227,2.4283,2.4307,2.4432,2.439,2.4396,2.4433,2.443,2.4485,2.4492,2.4505,2.4595,2.4612,2.4657,2.4584,2.4824,2.4829,2.4835,2.4871,2.4881,2.489,0,0,0,0,0,2.4157,2.4232,2.4229,2.4249,2.4355,2.4434,2.4448,2.4463,2.4436,2.4473,2.45,2.449,2.4642,2.4604,2.4623,2.467,2.4821,2.4828,2.4834,2.4866,2.4879,2.489,0,0,0,0,0,0,2.4178,2.424,2.4236,2.4333,2.4379,2.4432,2.4479,2.4476,2.4529,2.4523,2.4538,2.4551,2.4636,2.4662,2.4619,2.4765,2.4727,2.4738,2.4745,2.4758,2.4767,2.4759,2.459,0,0,0,0,0,2.4195,2.4256,2.4305,2.4386,2.4409,2.444,2.4475,2.4484,2.4531,2.4549,2.4583,2.4628,2.4685,2.4723,2.4778,2.4874,2.4886,2.4916,2.4926,2.4934,2.4942,2.4995,2.5009,2.486,2.486,2.4859,0,0,2.4228,2.4269,2.4307,2.4391,2.4428,2.4489,2.4457,2.4523,2.4568,2.4559,2.4641,2.4667,2.4718,2.4809,2.485,2.4832,2.4986,2.4942,2.4948,2.4953,2.5003,2.5017,2.503,2.4864,2.4863,2.4863,0,0,2.4321,2.4359,2.443,2.4468,2.4524,2.4544,2.4561,2.4616,2.4633,2.4716,2.4711,2.4764,2.4863,2.49,2.4931,2.5039,2.5031,2.5056,2.5106,2.5157,2.5169,2.518,2.5218,2.5231,2.5065,2.5065,2.5065,0,2.4355,2.445,2.4466,2.4534,2.4571,2.4568,2.4639,2.4674,2.4745,2.4769,2.4749,2.4874,2.4908,2.5007,2.5034,2.5059,2.5078,2.505,2.5166,2.5177,2.5187,2.5224,2.5238,2.5068,2.5068,2.5068,2.5067,0,2.4489,2.4554,2.4604,2.4675,2.4718,2.4787,2.4813,2.4853,2.4858,2.488,2.4964,2.5005,2.5069,2.5093,2.5097,2.5193,2.518,2.5163,2.5125,2.5204,2.5238,2.5252,2.5072,2.5071,2.507,2.507,0,0,2.4598,2.4678,2.4696,2.4728,2.479,2.484,2.4908,2.4973,2.5007,2.5056,2.5113,2.5198,2.5182,2.5218,2.5226,2.5271,2.5354,2.5248,2.525,2.5266,2.5461,2.5474,2.549,2.5349,2.5352,2.5354,2.5457,0,2.4696,2.482,2.4837,2.4945,2.5006,2.5003,2.5063,2.5107,2.5129,2.5182,2.5206,2.5266,2.5241,2.5263,2.5308,2.5334,2.5393,2.5327,2.5401,2.5404,2.5389,2.5508,2.5522,2.5617,2.5471,2.5473,2.5475,0,2.4828,2.4883,2.4998,2.5052,2.5078,2.5131,2.5192,2.5243,2.5292,2.5305,2.5346,2.5349,2.5418,2.5379,2.5474,2.5429,2.546,2.5478,2.5482,2.5489,2.5444,2.5518,2.5648,2.5662,2.5496,2.5494,2.5493,0,2.4896,2.4998,2.508,2.5107,2.5173,2.521,2.5239,2.5286,2.5324,2.5376,2.54,2.5459,2.5491,2.5536,2.5554,2.5524,2.5649,2.561,2.5661,2.5661,2.5687,2.5685,2.5823,2.5708,2.5708,2.5707,2.5707,0,2.5004,2.5074,2.5111,2.5162,2.524,2.5259,2.5335,2.5362,2.5404,2.5459,2.546,2.551,2.5532,2.5586,2.56,2.5677,2.5691,2.5703,2.5706,2.5703,2.5702,2.5724,2.5717,2.5711,2.571,2.5709,2.5709,0,2.5092,2.512,2.5209,2.5265,2.528,2.5336,2.5382,2.543,2.5453,2.5522,2.5539,2.5574,2.5637,2.5661,2.5737,2.5747,2.5836,2.5833,2.582,2.5821,2.587,2.5865,2.6027,2.6049,2.5919,2.592,2.5921,0,2.5159,2.5214,2.5276,2.5313,2.5344,2.5404,2.5443,2.5464,2.5504,2.5564,2.5605,2.5669,2.5721,2.5822,2.5853,2.5912,2.5911,2.5964,2.5919,2.5915,2.5911,2.5908,2.5913,2.5971,2.5973,2.5974,2.5975,0,2.5275,2.5287,2.5344,2.5406,2.5453,2.5503,2.5551,2.5581,2.5608,2.5653,2.5719,2.576,2.5839,2.5902,2.5963,2.599,2.5987,2.5989,2.6003,2.6001,2.5991,2.5997,2.5842,2.5984,2.5984,2.5983,2.5982,2.5982,2.5355,2.5403,2.5455,2.5519,2.5557,2.5602,2.5651,2.568,2.5736,2.5804,2.5812,2.5883,2.593,2.6011,2.6042,2.6097,2.6082,2.6104,2.6109,2.6114,2.6118,2.5982,2.6108,2.6108,2.6107,2.6107,2.6107,0,2.5471,2.5504,2.5563,2.5631,2.5681,2.5675,2.5728,2.577,2.5833,2.5879,2.593,2.6006,2.6068,2.6104,2.6165,2.6202,2.6202,2.6218,2.6215,2.6221,2.6127,2.6108,2.6217,2.6217,2.6217,2.6217,2.6217,2.6217,2.5537,2.5619,2.5636,2.5737,2.5769,2.584,2.5871,2.5912,2.5949,2.6034,2.6086,2.611,2.6152,2.6216,2.6272,2.6281,2.6303,2.632,2.6328,2.6239,2.6228,2.6217,2.6199,2.6325,2.6325,2.6417,2.6418,2.6419]}]]